When you browse on this site, cookies collect data to enhance your experience and personalize the content and advertising you see.
Visit our Privacy Policy to learn more. By continuing to use the site, you agree to this use of cookies and data.

Hourly Weather Malanino

Today, 12 August, Wednesday

Time Temperature Precipitation Wind Pressure Humidity
00:00 +12°C° 0.1 mm 3 mps 747 mmHg 94%
01:00 +12°C° 0.1 mm 3 mps 747 mmHg 93%
02:00 +12°C° 0 mm 3 mps 747 mmHg 95%
03:00 +12°C° 0.2 mm 3 mps 747 mmHg 95%
04:00 +12°C° 0.2 mm 4 mps 747 mmHg 95%
05:00 +12°C° 0.2 mm 4 mps 747 mmHg 95%
06:00 +12°C° 0.1 mm 4 mps 747 mmHg 94%
07:00 +12°C° 0.1 mm 4 mps 748 mmHg 94%
08:00 +12°C° 0 mm 4 mps 748 mmHg 92%
09:00 +12°C° 0.1 mm 4 mps 748 mmHg 92%
10:00 +11°C° 0.1 mm 4 mps 748 mmHg 92%
11:00 +11°C° 0.1 mm 4 mps 748 mmHg 92%
12:00 +12°C° 0.1 mm 4 mps 748 mmHg 88%
13:00 +13°C° 0.1 mm 4 mps 748 mmHg 85%
14:00 +15°C° 0 mm 4 mps 749 mmHg 78%
15:00 +16°C° 0.1 mm 3 mps 749 mmHg 76%
16:00 +16°C° 0.1 mm 3 mps 749 mmHg 75%
17:00 +16°C° 0.1 mm 2 mps 749 mmHg 74%
18:00 +15°C° 0 mm 2 mps 749 mmHg 77%
19:00 +14°C° 0 mm 2 mps 749 mmHg 80%
20:00 +13°C° 0 mm 2 mps 749 mmHg 84%
21:00 +12°C° 0 mm 2 mps 749 mmHg 84%
22:00 +10°C° 0 mm 2 mps 749 mmHg 84%
23:00 +9°C° 0 mm 2 mps 749 mmHg 85%

Tomorrow, 13 August, Thursday

Time Temperature Precipitation Wind Pressure Humidity
00:00 +9°C° 0 mm 2 mps 749 mmHg 87%
01:00 +8°C° 0 mm 2 mps 749 mmHg 89%
02:00 +7°C° 0 mm 2 mps 749 mmHg 91%
03:00 +8°C° 0 mm 2 mps 749 mmHg 90%
04:00 +8°C° 0 mm 2 mps 749 mmHg 89%
05:00 +8°C° 0 mm 2 mps 749 mmHg 88%
06:00 +10°C° 0 mm 2 mps 749 mmHg 80%
07:00 +13°C° 0 mm 2 mps 749 mmHg 72%
08:00 +13°C° 0 mm 3 mps 749 mmHg 65%
09:00 +14°C° 0 mm 3 mps 749 mmHg 59%
10:00 +17°C° 0 mm 3 mps 749 mmHg 54%
11:00 +18°C° 0 mm 3 mps 749 mmHg 48%
12:00 +17°C° 0 mm 3 mps 749 mmHg 51%
13:00 +17°C° 0 mm 3 mps 749 mmHg 53%
14:00 +17°C° 0 mm 3 mps 749 mmHg 56%
15:00 +17°C° 0 mm 3 mps 748 mmHg 59%
16:00 +16°C° 0 mm 3 mps 748 mmHg 62%
17:00 +16°C° 0 mm 2 mps 748 mmHg 65%
18:00 +14°C° 0 mm 2 mps 748 mmHg 72%
19:00 +13°C° 0 mm 2 mps 749 mmHg 79%
20:00 +11°C° 0 mm 1 mps 749 mmHg 86%
21:00 +11°C° 0 mm 1 mps 749 mmHg 87%
22:00 +10°C° 0 mm 1 mps 749 mmHg 89%
23:00 +10°C° 0 mm 1 mps 749 mmHg 91%

Day after tomorrow, 14 August, Friday

Time Temperature Precipitation Wind Pressure Humidity
00:00 +9°C° 0 mm 1 mps 749 mmHg 93%
01:00 +9°C° 0 mm 1 mps 749 mmHg 94%
02:00 +8°C° 0 mm 1 mps 750 mmHg 96%
03:00 +7°C° 0 mm 2 mps 750 mmHg 96%
04:00 +7°C° 0 mm 2 mps 750 mmHg 96%
05:00 +7°C° 0 mm 2 mps 750 mmHg 95%
06:00 +9°C° 0 mm 2 mps 750 mmHg 86%
07:00 +12°C° 0 mm 2 mps 750 mmHg 77%
08:00 +14°C° 0 mm 2 mps 750 mmHg 68%
09:00 +15°C° 0 mm 2 mps 750 mmHg 61%
10:00 +17°C° 0 mm 2 mps 750 mmHg 53%
11:00 +18°C° 0 mm 2 mps 750 mmHg 46%
12:00 +19°C° 0 mm 2 mps 750 mmHg 45%
13:00 +19°C° 0 mm 2 mps 750 mmHg 45%
14:00 +20°C° 0 mm 2 mps 749 mmHg 44%
15:00 +20°C° 0 mm 2 mps 749 mmHg 48%
16:00 +19°C° 0 mm 2 mps 749 mmHg 52%
17:00 +19°C° 0 mm 2 mps 749 mmHg 56%
18:00 +17°C° 0 mm 2 mps 749 mmHg 63%
19:00 +15°C° 0 mm 1 mps 749 mmHg 70%
20:00 +13°C° 0 mm 1 mps 750 mmHg 77%
21:00 +12°C° 0 mm 1 mps 750 mmHg 81%
22:00 +12°C° 0 mm 1 mps 750 mmHg 84%
23:00 +11°C° 0 mm 1 mps 750 mmHg 88%

15 August, Saturday

Time Temperature Precipitation Wind Pressure Humidity
00:00 +11°C° 0 mm 1 mps 750 mmHg 88%
01:00 +11°C° 0 mm 1 mps 750 mmHg 89%
02:00 +11°C° 0 mm 1 mps 750 mmHg 90%
03:00 +11°C° 0 mm 1 mps 750 mmHg 89%
04:00 +11°C° 0 mm 1 mps 750 mmHg 88%
05:00 +11°C° 0 mm 1 mps 750 mmHg 87%
06:00 +13°C° 0 mm 1 mps 750 mmHg 79%
07:00 +15°C° 0 mm 1 mps 750 mmHg 71%
08:00 +18°C° 0 mm 1 mps 750 mmHg 63%
09:00 +19°C° 0 mm 1 mps 750 mmHg 58%
10:00 +20°C° 0 mm 1 mps 750 mmHg 53%
11:00 +22°C° 0 mm 1 mps 750 mmHg 48%
12:00 +21°C° 0 mm 2 mps 750 mmHg 47%
13:00 +23°C° 0 mm 2 mps 749 mmHg 46%
14:00 +23°C° 0 mm 2 mps 749 mmHg 45%
15:00 +23°C° 0 mm 1 mps 749 mmHg 49%
16:00 +22°C° 0 mm 1 mps 749 mmHg 54%
17:00 +22°C° 0 mm 1 mps 748 mmHg 58%
18:00 +20°C° 0 mm 1 mps 748 mmHg 65%
19:00 +18°C° 0 mm 1 mps 748 mmHg 71%
20:00 +15°C° 0 mm 1 mps 748 mmHg 77%
21:00 +14°C° 0 mm 1 mps 748 mmHg 81%
22:00 +14°C° 0 mm 1 mps 748 mmHg 84%
23:00 +13°C° 0 mm 1 mps 748 mmHg 87%

16 August, Sunday

Time Temperature Precipitation Wind Pressure Humidity
00:00 +13°C° 0 mm 1 mps 748 mmHg 90%
01:00 +13°C° 0 mm 1 mps 748 mmHg 93%
02:00 +13°C° 0 mm 1 mps 748 mmHg 96%
03:00 +13°C° 0 mm 1 mps 747 mmHg 97%
04:00 +13°C° 0 mm 1 mps 747 mmHg 98%
05:00 +13°C° 0 mm 2 mps 747 mmHg 98%
06:00 +15°C° 0 mm 2 mps 747 mmHg 92%
07:00 +17°C° 0 mm 2 mps 747 mmHg 85%
08:00 +18°C° 0 mm 2 mps 746 mmHg 79%
09:00 +20°C° 0 mm 2 mps 746 mmHg 74%
10:00 +22°C° 0 mm 3 mps 746 mmHg 69%
11:00 +24°C° 0 mm 3 mps 746 mmHg 64%
12:00 +25°C° 0 mm 4 mps 746 mmHg 59%
13:00 +25°C° 0 mm 4 mps 745 mmHg 54%
14:00 +26°C° 0 mm 4 mps 745 mmHg 49%
15:00 +25°C° 0 mm 4 mps 745 mmHg 53%
16:00 +24°C° 0 mm 3 mps 745 mmHg 58%
17:00 +24°C° 0 mm 3 mps 745 mmHg 62%
18:00 +21°C° 0 mm 3 mps 745 mmHg 70%
19:00 +20°C° 0 mm 2 mps 745 mmHg 77%
20:00 +18°C° 0 mm 2 mps 745 mmHg 85%
21:00 +17°C° 0 mm 2 mps 745 mmHg 89%
22:00 +16°C° 0 mm 2 mps 745 mmHg 93%
23:00 +16°C° 0 mm 2 mps 745 mmHg 97%

17 August, Monday

Time Temperature Precipitation Wind Pressure Humidity
00:00 +15°C° 0 mm 2 mps 745 mmHg 97%
01:00 +15°C° 0 mm 2 mps 745 mmHg 97%
02:00 +14°C° 0 mm 2 mps 745 mmHg 96%
03:00 +13°C° 0 mm 2 mps 745 mmHg 95%
04:00 +12°C° 0 mm 2 mps 745 mmHg 93%
05:00 +12°C° 0 mm 2 mps 745 mmHg 91%
06:00 +14°C° 0 mm 2 mps 745 mmHg 81%
07:00 +15°C° 0 mm 2 mps 745 mmHg 70%
08:00 +17°C° 0 mm 2 mps 745 mmHg 60%
09:00 +19°C° 0 mm 2 mps 745 mmHg 55%
10:00 +20°C° 0 mm 2 mps 745 mmHg 50%
11:00 +21°C° 0 mm 3 mps 745 mmHg 44%
12:00 +22°C° 0 mm 3 mps 745 mmHg 43%
13:00 +22°C° 0 mm 3 mps 744 mmHg 42%
14:00 +23°C° 0 mm 4 mps 744 mmHg 40%
15:00 +22°C° 0 mm 4 mps 744 mmHg 44%
16:00 +22°C° 0 mm 3 mps 744 mmHg 48%
17:00 +21°C° 0 mm 3 mps 744 mmHg 52%
18:00 +19°C° 0 mm 2 mps 744 mmHg 57%
19:00 +18°C° 0 mm 2 mps 744 mmHg 62%
20:00 +16°C° 0 mm 2 mps 744 mmHg 67%
21:00 +15°C° 0 mm 2 mps 743 mmHg 70%
22:00 +15°C° 0 mm 2 mps 743 mmHg 73%
23:00 +14°C° 0 mm 2 mps 743 mmHg 76%
Show more